TimeCEST,TemperatureF,Dew PointF,Humidity,Sea Level PressureIn,VisibilityMPH,Wind Direction,Wind SpeedMPH,Gust SpeedMPH,PrecipitationIn,Events,Conditions,WindDirDegrees,DateUTC
12:00 AM,51.8,48.2,88,30.01,-9999.0,South,8.1,-,N/A,,Clear,180,2012-10-03 22:00:00
12:30 AM,51.8,48.2,88,29.98,-9999.0,South,8.1,-,N/A,,Clear,180,2012-10-03 22:30:00
1:00 AM,53.6,48.2,82,29.98,-9999.0,South,9.2,-,N/A,,Clear,180,2012-10-03 23:00:00
1:30 AM,53.6,48.2,82,29.98,-9999.0,South,9.2,-,N/A,,Clear,180,2012-10-03 23:30:00
2:00 AM,54,48,74,29.99,25,SE,6.7,,,,Mostly Cloudy,140,2012-10-04 00:00:00
2:00 AM,53.6,48.2,82,29.98,-9999.0,SSE,6.9,-,N/A,,Clear,150,2012-10-04 00:00:00
2:30 AM,53.6,48.2,82,29.98,-9999.0,SSE,6.9,-,N/A,,Clear,150,2012-10-04 00:30:00
3:00 AM,53.6,48.2,82,29.98,-9999.0,SSE,5.8,-,N/A,,Clear,150,2012-10-04 01:00:00
3:30 AM,53.6,48.2,82,29.95,-9999.0,SSE,5.8,-,N/A,,Clear,160,2012-10-04 01:30:00
4:00 AM,53.6,48.2,82,29.95,-9999.0,SSE,5.8,-,N/A,,Clear,150,2012-10-04 02:00:00
4:30 AM,53.6,48.2,82,29.95,-9999.0,SSE,6.9,-,N/A,,Clear,150,2012-10-04 02:30:00
5:00 AM,51.8,48.2,88,29.95,-9999.0,SSE,6.9,-,N/A,,Clear,150,2012-10-04 03:00:00
5:30 AM,53.6,48.2,82,29.95,-9999.0,SSE,6.9,-,N/A,,Clear,160,2012-10-04 03:30:00
6:00 AM,51.8,48.2,88,29.95,-9999.0,SE,4.6,-,N/A,,Clear,140,2012-10-04 04:00:00
6:30 AM,51.8,48.2,88,29.95,-9999.0,SSE,6.9,-,N/A,,Clear,150,2012-10-04 04:30:00
7:00 AM,53.6,48.2,82,29.92,-9999.0,SSE,8.1,-,N/A,,Clear,150,2012-10-04 05:00:00
7:30 AM,53.6,48.2,82,29.92,-9999.0,SSE,8.1,-,N/A,,Clear,150,2012-10-04 05:30:00
8:00 AM,53,47,75,29.94,25,SSE,4.5,,,,Scattered Clouds,160,2012-10-04 06:00:00
8:00 AM,53.6,48.2,82,29.92,-9999.0,South,6.9,-,N/A,,Clear,170,2012-10-04 06:00:00
8:30 AM,55.4,48.2,77,29.92,-9999.0,SSE,6.9,-,N/A,,Clear,160,2012-10-04 06:30:00
9:00 AM,57.2,50.0,77,29.92,-9999.0,SE,6.9,-,N/A,,Clear,140,2012-10-04 07:00:00
9:30 AM,59.0,50.0,72,29.92,-9999.0,SSE,8.1,-,N/A,,Clear,160,2012-10-04 07:30:00
10:00 AM,59.0,50.0,72,29.92,-9999.0,South,10.4,-,N/A,,Clear,190,2012-10-04 08:00:00
10:30 AM,59.0,50.0,72,29.89,-9999.0,South,10.4,-,N/A,,Clear,190,2012-10-04 08:30:00
11:00 AM,59.0,50.0,72,29.89,-9999.0,South,9.2,-,N/A,,Clear,190,2012-10-04 09:00:00
11:30 AM,60.8,51.8,72,29.89,-9999.0,South,9.2,-,N/A,,Clear,170,2012-10-04 09:30:00
12:00 PM,60.8,51.8,72,29.89,-9999.0,South,10.4,-,N/A,,Clear,180,2012-10-04 10:00:00
12:30 PM,62.6,51.8,68,29.86,-9999.0,South,10.4,-,N/A,,Clear,180,2012-10-04 10:30:00
1:00 PM,64.4,51.8,64,29.86,6.2,South,11.5,-,N/A,,Partly Cloudy,180,2012-10-04 11:00:00
1:30 PM,64.4,50.0,59,29.83,6.2,SSW,13.8,-,N/A,,Partly Cloudy,200,2012-10-04 11:30:00
2:00 PM,65,51,50,29.80,37,SSW,11.2,,,,Overcast,200,2012-10-04 12:00:00
2:00 PM,64.4,50.0,59,29.83,6.2,South,11.5,-,N/A,,Partly Cloudy,190,2012-10-04 12:00:00
2:18 PM,66.2,50.0,56,29.80,6.2,SSW,25.3,-,N/A,,Partly Cloudy,210,2012-10-04 12:18:00
2:30 PM,68.0,50.0,52,29.80,6.2,SSW,17.3,28.8,N/A,,Partly Cloudy,210,2012-10-04 12:30:00
3:00 PM,66.2,48.2,52,29.80,6.2,SSW,19.6,-,N/A,,Partly Cloudy,210,2012-10-04 13:00:00
3:30 PM,66.2,48.2,52,29.77,6.2,SSW,18.4,32.2,N/A,,Partly Cloudy,200,2012-10-04 13:30:00
4:00 PM,66.2,48.2,52,29.74,6.2,South,15.0,-,N/A,,Partly Cloudy,190,2012-10-04 14:00:00
4:30 PM,66.2,48.2,52,29.74,6.2,SSW,19.6,-,N/A,,Partly Cloudy,200,2012-10-04 14:30:00
5:00 PM,64.4,48.2,56,29.74,6.2,SSW,19.6,34.5,N/A,Rain,Light Rain Showers,200,2012-10-04 15:00:00
5:08 PM,62.6,50.0,63,29.77,3.1,SSW,26.5,44.9,N/A,Rain,Rain Showers,200,2012-10-04 15:08:00
5:13 PM,60.8,51.8,72,29.77,1.6,SW,32.2,44.9,N/A,Rain,Rain Showers,220,2012-10-04 15:13:00
5:30 PM,57.2,53.6,88,29.80,5.0,WSW,29.9,-,N/A,Rain,Light Rain Showers,240,2012-10-04 15:30:00
6:00 PM,57.2,51.8,82,29.80,5.0,SW,27.6,-,N/A,Rain,Rain Showers,230,2012-10-04 16:00:00
6:13 PM,57.2,53.6,88,29.80,6.2,SW,28.8,-,N/A,Rain,Light Rain Showers,230,2012-10-04 16:13:00
6:30 PM,55.4,51.8,88,29.83,6.2,SW,26.5,-,N/A,Rain,Light Rain Showers,230,2012-10-04 16:30:00
6:43 PM,55.4,51.8,88,29.83,6.2,SW,23.0,-,N/A,,Partly Cloudy,230,2012-10-04 16:43:00
7:00 PM,55.4,50.0,82,29.86,6.2,WSW,23.0,-,N/A,,Scattered Clouds,240,2012-10-04 17:00:00
7:30 PM,53.6,48.2,82,29.89,6.2,West,20.7,-,N/A,Rain,Light Rain Showers,270,2012-10-04 17:30:00
8:00 PM,53,45,67,29.91,37,West,20.1,,,Rain,Light Rain Showers,270,2012-10-04 18:00:00
8:00 PM,53.6,44.6,72,29.89,6.2,West,20.7,-,N/A,,Partly Cloudy,270,2012-10-04 18:00:00
8:30 PM,51.8,44.6,76,29.92,6.2,West,19.6,-,N/A,,Partly Cloudy,260,2012-10-04 18:30:00
9:00 PM,51.8,42.8,71,29.95,6.2,WSW,16.1,-,N/A,,Partly Cloudy,250,2012-10-04 19:00:00
9:30 PM,50.0,42.8,76,29.98,6.2,WSW,17.3,-,N/A,,Partly Cloudy,250,2012-10-04 19:30:00
10:00 PM,50.0,42.8,76,29.98,6.2,WSW,17.3,-,N/A,,Partly Cloudy,250,2012-10-04 20:00:00
10:30 PM,50.0,42.8,76,30.01,6.2,West,11.5,-,N/A,,Scattered Clouds,260,2012-10-04 20:30:00
11:00 PM,50.0,42.8,76,30.04,6.2,West,9.2,-,N/A,,Mostly Cloudy,280,2012-10-04 21:00:00
11:30 PM,46.4,42.8,87,30.04,6.2,WSW,6.9,-,N/A,,Partly Cloudy,250,2012-10-04 21:30:00